| time (UTC) | temp F | wind direction | speed MPH | gust MPH | rain 1hr in | rain 24hr in | rain mn in | humidity % | barometer mb |
| 20260505013516 | 57 | 270 | 1.0 | 8.0 | 0.00 | 0.00 | 0.00 | 57 | 927.1 |
| 20260505012516 | 58 | 270 | 2.0 | 5.0 | 0.00 | 0.00 | 0.00 | 56 | 927.0 |
| 20260505011517 | 58 | 248 | 2.0 | 6.0 | 0.00 | 0.00 | 0.00 | 56 | 926.8 |
| 20260505010516 | 58 | 248 | 1.0 | 3.0 | 0.00 | 0.00 | 0.00 | 55 | 926.7 |
| 20260505005516 | 59 | 248 | 1.0 | 3.0 | 0.00 | 0.00 | 0.00 | 54 | 926.6 |
| 20260505004516 | 59 | 248 | 1.0 | 5.0 | 0.00 | 0.00 | 0.00 | 52 | 926.4 |
| 20260505003516 | 60 | 135 | 3.0 | 9.0 | 0.00 | 0.00 | 0.00 | 51 | 926.2 |
| 20260505002537 | 60 | 248 | 1.0 | 4.0 | 0.00 | 0.00 | 0.00 | 51 | 925.9 |
| 20260505001517 | 61 | 248 | 2.0 | 5.0 | 0.00 | 0.00 | 0.00 | 48 | 925.5 |
| 20260505000516 | 61 | 270 | 1.0 | 4.0 | 0.00 | 0.00 | 0.00 | 47 | 925.5 |
| 20260504235516 | 62 | 248 | 2.0 | 6.0 | 0.00 | 0.00 | 0.00 | 46 | 925.2 |
| 20260504234516 | 62 | 270 | 3.0 | 7.0 | 0.00 | 0.00 | 0.00 | 45 | 925.2 |
| 20260504233516 | 63 | 248 | 2.0 | 6.0 | 0.00 | 0.00 | 0.00 | 45 | 925.0 |
| 20260504232516 | 63 | 248 | 3.0 | 6.0 | 0.00 | 0.00 | 0.00 | 44 | 925.2 |
| 20260504231536 | 64 | 158 | 3.0 | 12.0 | 0.00 | 0.00 | 0.00 | 44 | 924.7 |
| 20260504230516 | 64 | 270 | 4.0 | 15.0 | 0.00 | 0.00 | 0.00 | 43 | 924.6 |
| 20260504225516 | 65 | 248 | 5.0 | 11.0 | 0.00 | 0.00 | 0.00 | 42 | 924.5 |
| 20260504224516 | 65 | 248 | 2.0 | 6.0 | 0.00 | 0.00 | 0.00 | 41 | 924.3 |
| 20260504223516 | 66 | 248 | 4.0 | 14.0 | 0.00 | 0.00 | 0.00 | 40 | 924.3 |
| 20260504222516 | 66 | 270 | 4.0 | 11.0 | 0.00 | 0.00 | 0.00 | 39 | 924.2 |
| 20260504221515 | 67 | 248 | 4.0 | 10.0 | 0.00 | 0.00 | 0.00 | 38 | 924.2 |
| 20260504220516 | 68 | 270 | 4.0 | 10.0 | 0.00 | 0.00 | 0.00 | 36 | 924.2 |
| 20260504215535 | 69 | 248 | 5.0 | 11.0 | 0.00 | 0.00 | 0.00 | 35 | 924.1 |
| 20260504214517 | 69 | 248 | 3.0 | 8.0 | 0.00 | 0.00 | 0.00 | 34 | 923.9 |
| 20260504213536 | 70 | 248 | 3.0 | 10.0 | 0.00 | 0.00 | 0.00 | 34 | 924.2 |
| 20260504211516 | 72 | 248 | 3.0 | 9.0 | 0.00 | 0.00 | 0.00 | 29 | 923.8 |
| 20260504210516 | 73 | 270 | 2.0 | 8.0 | 0.00 | 0.00 | 0.00 | 30 | 923.7 |
| 20260504205515 | 72 | 270 | 3.0 | 6.0 | 0.00 | 0.00 | 0.00 | 30 | 923.7 |
| 20260504204515 | 73 | 248 | 3.0 | 8.0 | 0.00 | 0.00 | 0.00 | 29 | 923.7 |
| 20260504203536 | 73 | 135 | 4.0 | 10.0 | 0.00 | 0.00 | 0.00 | 29 | 923.7 |
| 20260504202515 | 73 | 248 | 3.0 | 8.0 | 0.00 | 0.00 | 0.00 | 28 | 923.8 |
| 20260504201515 | 73 | 248 | 2.0 | 7.0 | 0.00 | 0.00 | 0.00 | 29 | 923.8 |
| 20260504200515 | 73 | 248 | 3.0 | 6.0 | 0.00 | 0.00 | 0.00 | 28 | 923.8 |
| 20260504195517 | 73 | 270 | 3.0 | 7.0 | 0.00 | 0.00 | 0.00 | 28 | 923.9 |
| 20260504194515 | 73 | 270 | 3.0 | 8.0 | 0.00 | 0.00 | 0.00 | 26 | 923.9 |
| 20260504193515 | 73 | 248 | 2.0 | 7.0 | 0.00 | 0.00 | 0.00 | 29 | 924.0 |
| 20260504192536 | 73 | 248 | 4.0 | 10.0 | 0.00 | 0.00 | 0.00 | 27 | 923.9 |
| 20260504191515 | 73 | 248 | 2.0 | 6.0 | 0.00 | 0.00 | 0.00 | 27 | 923.9 |
| 20260504190515 | 72 | 248 | 4.0 | 11.0 | 0.00 | 0.00 | 0.00 | 27 | 924.0 |
| 20260504185517 | 72 | 248 | 4.0 | 7.0 | 0.00 | 0.00 | 0.00 | 29 | 924.1 |
| 20260504184515 | 72 | 248 | 3.0 | 8.0 | 0.00 | 0.00 | 0.00 | 27 | 924.1 |
| 20260504183517 | 72 | 270 | 3.0 | 9.0 | 0.00 | 0.00 | 0.00 | 26 | 924.3 |
| 20260504182536 | 71 | 248 | 4.0 | 8.0 | 0.00 | 0.00 | 0.00 | 25 | 924.3 |
| 20260504181517 | 71 | 248 | 5.0 | 16.0 | 0.00 | 0.00 | 0.00 | 28 | 924.3 |
| 20260504180518 | 70 | 270 | 4.0 | 9.0 | 0.00 | 0.00 | 0.00 | 26 | 924.6 |
| 20260504175517 | 71 | 248 | 4.0 | 11.0 | 0.00 | 0.00 | 0.00 | 26 | 924.6 |
| 20260504174517 | 71 | 248 | 4.0 | 8.0 | 0.00 | 0.00 | 0.00 | 26 | 924.6 |
| 20260504173517 | 71 | 248 | 4.0 | 11.0 | 0.00 | 0.00 | 0.00 | 27 | 924.7 |
| 20260504172517 | 71 | 248 | 3.0 | 6.0 | 0.00 | 0.00 | 0.00 | 26 | 924.7 |
| 20260504171538 | 71 | 248 | 3.0 | 7.0 | 0.00 | 0.00 | 0.00 | 29 | 924.7 |
| 20260504170517 | 70 | 248 | 4.0 | 12.0 | 0.00 | 0.00 | 0.00 | 28 | 924.7 |
| 20260504150537 | 66 | 248 | 4.0 | 10.0 | 0.00 | 0.00 | 0.00 | 34 | 926.1 |
| 20260504140517 | 64 | 248 | 2.0 | 7.0 | 0.00 | 0.00 | 0.00 | 37 | 926.4 |
| 20260504130517 | 59 | 270 | 1.0 | 4.0 | 0.00 | 0.00 | 0.00 | 42 | 927.0 |
| 20260504110518 | 46 | 0.0 | 4.0 | 0.00 | 0.00 | 0.00 | 60 | 927.4 | |
| 20260504100517 | 41 | 0.0 | 0.0 | 0.00 | 0.00 | 0.00 | 69 | 927.2 | |
| 20260504081517 | 42 | 0.0 | 0.0 | 0.00 | 0.00 | 0.00 | 68 | 926.9 | |
| 20260504080516 | 42 | 0.0 | 0.0 | 0.00 | 0.00 | 0.00 | 67 | 926.9 | |
| 20260504050516 | 40 | 0.0 | 0.0 | 0.00 | 0.00 | 0.00 | 73 | 927.0 | |
| 20260504045516 | 40 | 0.0 | 0.0 | 0.00 | 0.00 | 0.00 | 73 | 927.0 | |
| 20260504044516 | 40 | 0.0 | 0.0 | 0.00 | 0.00 | 0.00 | 73 | 927.0 | |
| 20260504043516 | 40 | 0.0 | 0.0 | 0.00 | 0.00 | 0.00 | 73 | 927.0 | |
| 20260504042516 | 40 | 0.0 | 0.0 | 0.00 | 0.00 | 0.00 | 71 | 926.9 | |
| 20260504041516 | 39 | 0.0 | 0.0 | 0.00 | 0.00 | 0.00 | 74 | 927.0 | |
| 20260504040519 | 39 | 0.0 | 0.0 | 0.00 | 0.00 | 0.00 | 74 | 926.8 | |
| 20260504035516 | 38 | 0.0 | 0.0 | 0.00 | 0.00 | 0.00 | 74 | 926.8 | |
| 20260504034516 | 38 | 0.0 | 0.0 | 0.00 | 0.00 | 0.00 | 74 | 926.6 | |
| 20260504033536 | 38 | 0.0 | 0.0 | 0.00 | 0.00 | 0.00 | 73 | 926.6 | |
| 20260504032516 | 39 | 0.0 | 0.0 | 0.00 | 0.00 | 0.00 | 72 | 926.5 | |
| 20260504031516 | 39 | 0.0 | 0.0 | 0.00 | 0.00 | 0.00 | 73 | 926.4 | |
| 20260504030516 | 38 | 0.0 | 0.0 | 0.00 | 0.00 | 0.00 | 74 | 926.4 | |
| 20260504025516 | 38 | 0.0 | 0.0 | 0.00 | 0.00 | 0.00 | 74 | 926.3 | |
| 20260504024516 | 38 | 0.0 | 0.0 | 0.00 | 0.00 | 0.00 | 73 | 926.2 | |
| 20260504023516 | 39 | 0.0 | 0.0 | 0.00 | 0.00 | 0.00 | 71 | 926.2 | |
| 20260504022516 | 39 | 0.0 | 0.0 | 0.00 | 0.00 | 0.00 | 69 | 926.3 | |
| 20260504021516 | 39 | 0.0 | 0.0 | 0.00 | 0.00 | 0.00 | 69 | 926.2 | |
| 20260504020516 | 40 | 0.0 | 0.0 | 0.00 | 0.00 | 0.00 | 69 | 926.2 | |
| 20260504015515 | 40 | 0.0 | 0.0 | 0.00 | 0.00 | 0.00 | 69 | 926.1 | |
| 20260504014516 | 40 | 0.0 | 0.0 | 0.00 | 0.00 | 0.00 | 67 | 926.1 |